Monroe, LA

8:51 AM CST on December 15, 2017 (GMT -0600)
Monroe Regional

Weather History for KMLU - October, 2012

Change the Weather History Date:

Thursday, October 4, 2012

  Actual Average Record
Temperature  
Mean Temperature 70 °F 70 °F  
Max Temperature 84 °F 83 °F 99 °F (1911)
Min Temperature 56 °F 57 °F 40 °F (1987)
Degree Days  
Heating Degree Days 0 1  
Month to date heating degree days 0 4  
Since 1 July heating degree days 1 10  
Cooling Degree Days 5 6  
Month to date cooling degree days 8 26  
Year to date cooling degree days 2677 2390  
Growing Degree Days 20 (Base 50)    
Moisture  
Dew Point 60 °F    
Average Humidity 72    
Maximum Humidity 100    
Minimum Humidity 43    
Precipitation  
Precipitation 0.00 in 0.14 in 4.28 in (1949)
Month to date precipitation 0.19 0.57  
Year to date precipitation 48.84 39.68  
Snow  
Snow 0.00 in - - ()
Month to date snowfall 0.0  
Since 1 July snowfall 0.0  
Since 1 September snowfall 0.0  
Snow Depth 0.00 in    
Sea Level Pressure  
Sea Level Pressure 30.17 in    
Wind  
Wind Speed 2 mph (SSE)    
Max Wind Speed 9 mph    
Max Gust Speed 12 mph    
Visibility 4 miles    
Events Fog , Rain    
T = Trace of Precipitation, MM = Missing Value Source: NWS Daily Summary

Daily Weather History Graph

Daily Weather History Graph

Search for Another Location

Airport or City:

Trip Planner

Search our weather history database for the weather conditions in past years. The results will help you decide how hot, cold, wet, or windy it might be!

Date:

Astronomy

Oct. 04, 2012 Rise Set
Actual Time 7:04 AM CDT 6:48 PM CDT
Civil Twilight 6:40 AM CDT 7:12 PM CDT
Nautical Twilight 6:11 AM CDT 7:41 PM CDT
Astronomical Twilight 5:42 AM CDT 8:09 PM CDT
Moon 9:39 PM CDT (10/4) 11:07 AM CDT (10/4)
Length of Visible Light 12h 32m
Length of Day
11h 43m
Waning Gibbous, 82% of the Moon is Illuminated
Oct 4
Waning Gibbous
Oct 8
Last Quarter
Oct 15
New
Oct 21
First Quarter
Oct 29
Full

Hourly Weather History & Observations

Time (CDT) Temp. Heat Index Dew Point Humidity Pressure Visibility Wind Dir Wind Speed Gust Speed Precip Events Conditions
12:13 AM 60.8 °F - 59.0 °F 94% 30.12 in 1.8 mi Calm Calm - N/A   Clear
12:20 AM 60.8 °F - 59.0 °F 94% 30.12 in 0.5 mi Calm Calm - N/A Fog Fog
12:30 AM 60.8 °F - 59.0 °F 94% 30.11 in 1.0 mi Calm Calm - N/A   Clear
12:47 AM 60.8 °F - 59.0 °F 94% 30.12 in 3.0 mi Calm Calm - N/A   Clear
12:53 AM 61.0 °F - 59.0 °F 93% 30.12 in 4.0 mi Calm Calm - N/A   Clear
1:53 AM 60.1 °F - 57.9 °F 93% 30.13 in 4.0 mi Calm Calm - N/A   Clear
1:59 AM 60.8 °F - 57.2 °F 88% 30.13 in 1.8 mi Calm Calm - N/A   Clear
2:10 AM 60.8 °F - 57.2 °F 88% 30.13 in 0.5 mi Calm Calm - N/A Fog Fog
2:24 AM 60.8 °F - 59.0 °F 94% 30.13 in 0.5 mi Calm Calm - N/A Fog Fog
2:32 AM 59.0 °F - 57.2 °F 94% 30.13 in 0.2 mi Calm Calm - N/A Fog Fog
2:40 AM 59.0 °F - 57.2 °F 94% 30.13 in 0.5 mi Calm Calm - N/A Fog Fog
2:53 AM 59.0 °F - 57.9 °F 96% 30.13 in 0.5 mi Calm Calm - N/A Fog Fog
3:08 AM 59.0 °F - 57.2 °F 94% 30.13 in 0.2 mi Calm Calm - N/A Fog Fog
3:35 AM 59.0 °F - 57.2 °F 94% 30.14 in 0.5 mi Calm Calm - N/A Fog Fog
3:48 AM 59.0 °F - 57.2 °F 94% 30.14 in 0.5 mi Calm Calm - N/A Fog Fog
3:53 AM 59.0 °F - 57.9 °F 96% 30.14 in 0.5 mi Calm Calm - N/A Fog Fog
4:26 AM 57.2 °F - 57.2 °F 100% 30.15 in 0.2 mi Calm Calm - 0.01 in Fog Fog
4:35 AM 57.2 °F - 57.2 °F 100% 30.15 in 0.8 mi Calm Calm - 0.01 in   Mist
4:38 AM 59.0 °F - 57.2 °F 94% 30.15 in 1.2 mi Calm Calm - 0.01 in   Partly Cloudy
4:53 AM 59.0 °F - 57.0 °F 93% 30.16 in 2.0 mi Calm Calm - 0.01 in   Partly Cloudy
5:01 AM 59.0 °F - 57.2 °F 94% 30.16 in 6.0 mi Calm Calm - N/A   Clear
5:16 AM 57.2 °F - 57.2 °F 100% 30.17 in 1.8 mi Calm Calm - N/A   Clear
5:31 AM 57.2 °F - 57.2 °F 100% 30.17 in 2.0 mi Calm Calm - N/A   Scattered Clouds
5:36 AM 57.2 °F - 57.2 °F 100% 30.17 in 1.0 mi Calm Calm - N/A   Mist
5:40 AM 59.0 °F - 57.2 °F 94% 30.17 in 0.2 mi Calm Calm - N/A Fog Fog
5:53 AM 59.0 °F - 57.9 °F 96% 30.17 in 0.2 mi Calm Calm - N/A Fog Fog
6:53 AM 57.0 °F - 55.9 °F 96% 30.19 in 0.2 mi Calm Calm - N/A Fog Fog
7:45 AM 57.2 °F - 57.2 °F 100% 30.20 in 1.2 mi Calm Calm - N/A   Overcast
7:47 AM 59.0 °F - 57.2 °F 94% 30.20 in 3.0 mi Calm Calm - N/A   Overcast
7:53 AM 59.0 °F - 57.9 °F 96% 30.20 in 3.0 mi Calm Calm - N/A   Overcast
7:59 AM 60.8 °F - 59.0 °F 94% 30.20 in 1.8 mi Calm Calm - N/A   Overcast
8:06 AM 60.8 °F - 60.8 °F 100% 30.20 in 0.5 mi Calm Calm - N/A Fog Fog
8:16 AM 60.8 °F - 60.8 °F 100% 30.21 in 0.2 mi Calm Calm - N/A Fog Fog
8:50 AM 64.4 °F - 64.4 °F 100% 30.22 in 0.5 mi Calm Calm - N/A Fog Fog
8:53 AM 64.9 °F - 64.0 °F 97% 30.22 in 0.8 mi Calm Calm - N/A   Overcast
9:01 AM 64.4 °F - 64.4 °F 100% 30.22 in 1.0 mi Calm Calm - N/A   Overcast
9:14 AM 66.2 °F - 64.4 °F 94% 30.23 in 3.0 mi Calm Calm - N/A   Mostly Cloudy
9:26 AM 66.2 °F - 64.4 °F 94% 30.23 in 5.0 mi SSE 3.5 mph - N/A   Scattered Clouds
9:53 AM 71.1 °F - 66.0 °F 84% 30.23 in 10.0 mi Calm Calm - N/A   Clear
10:53 AM 75.9 °F - 66.0 °F 71% 30.23 in 10.0 mi Variable 3.5 mph - N/A   Clear
11:53 AM 80.1 °F 81.5 °F 63.0 °F 56% 30.23 in 10.0 mi South 5.8 mph - N/A   Clear
12:53 PM 81.0 °F 82.2 °F 63.0 °F 54% 30.22 in 10.0 mi Variable 3.5 mph - N/A   Mostly Cloudy
1:53 PM 82.9 °F 83.7 °F 62.1 °F 49% 30.19 in 10.0 mi Variable 4.6 mph - N/A   Partly Cloudy
2:53 PM 82.9 °F 82.8 °F 59.0 °F 44% 30.17 in 10.0 mi Variable 4.6 mph - N/A   Mostly Cloudy
3:53 PM 84.0 °F 83.8 °F 59.0 °F 43% 30.16 in 10.0 mi South 5.8 mph - N/A   Clear
4:53 PM 82.9 °F 82.6 °F 57.9 °F 42% 30.15 in 10.0 mi SSE 4.6 mph - N/A   Clear
5:53 PM 81.0 °F 81.6 °F 60.1 °F 49% 30.14 in 10.0 mi Calm Calm - N/A   Clear
6:53 PM 72.0 °F - 64.9 °F 78% 30.14 in 10.0 mi Calm Calm - N/A   Clear
7:53 PM 68.0 °F - 64.0 °F 87% 30.14 in 10.0 mi SE 3.5 mph - N/A   Clear
8:53 PM 64.9 °F - 62.1 °F 90% 30.15 in 10.0 mi Calm Calm - N/A   Clear
9:53 PM 64.0 °F - 62.1 °F 93% 30.16 in 9.0 mi Calm Calm - N/A   Clear
10:53 PM 63.0 °F - 61.0 °F 93% 30.17 in 8.0 mi Calm Calm - N/A   Clear
11:53 PM 64.0 °F - 62.1 °F 93% 30.16 in 7.0 mi Calm Calm - 0.00 in Rain Light Rain